Temperature
19 19 19 18 17 17 19 20 20 20 21 21 21 21 20 20 20 19 19 19 19 19 18 18 18 18 18 18 18 18 18 18 17 17 17 17 18 18 18 18 18 18 18 18 18 18 18 18 18
19 19 18 18 17 18 19 20 20 20 21 21 21 21 20 19 20 20 19 19 19 19 18 18 18 18 18 18 18 18 18 17 17 17 17 17 17 17 17 17 17 18 18 18 17 18 18 18 18
19 19 18 17 18 18 20 20 20 21 21 21 21 20 20 20 20 20 20 19 19 19 18 18 18 18 18 18 18 18 17 17 17 17 17 17 17 17 17 17 17 17 17 17 17 17 17 18 18
19 19 18 17 19 19 20 20 20 21 22 21 21 20 20 20 20 20 20 19 19 19 18 18 18 18 18 18 17 17 17 17 17 17 17 16 16 16 16 16 16 17 17 17 17 17 17 17 17
19 19 18 18 19 20 19 20 20 21 21 21 20 19 20 20 20 20 20 19 19 19 18 18 18 18 18 17 17 17 17 16 16 16 16 16 16 16 16 16 16 16 16 16 16 17 17 17 17
19 17 18 18 19 20 20 20 20 20 21 21 20 19 20 20 20 20 20 19 19 19 18 18 18 18 17 17 17 17 16 16 16 16 16 16 16 16 16 16 16 16 16 16 16 16 16 17 17
19 17 18 19 19 19 20 20 20 20 20 21 21 19 20 20 20 20 20 19 19 19 18 18 18 18 17 17 17 16 16 16 16 16 15 15 15 15 15 15 15 15 15 15 16 16 16 16 16
19 17 18 18 19 19 20 20 21 21 21 21 21 20 20 20 20 20 19 19 19 18 18 18 18 18 17 17 17 16 16 16 16 16 15 15 15 15 15 15 15 15 15 15 15 15 16 16 16
19 17 18 18 19 19 20 20 21 21 21 21 21 21 21 21 20 20 19 19 19 18 18 18 18 18 17 17 17 16 16 16 16 15 15 15 15 15 15 15 15 15 15 15 15 15 15 16 16
18 17 18 19 19 19 20 20 21 21 21 21 21 21 21 21 20 20 19 19 19 19 18 18 18 18 17 17 17 16 16 16 16 15 15 15 15 15 15 15 15 15 15 15 15 15 15 15 15
18 18 18 19 20 20 20 20 20 20 20 21 21 21 21 21 20 20 20 20 19 19 19 18 18 18 17 17 17 16 16 16 15 15 15 15 15 15 14 15 15 14 15 15 15 15 15 15 15
18 18 19 19 20 20 20 20 20 20 21 22 22 22 21 21 20 20 20 20 19 19 19 18 18 18 17 17 17 16 16 16 15 15 15 15 15 14 14 14 14 14 14 14 14 14 15 15 15
18 18 19 20 20 20 20 20 20 21 22 22 22 22 21 21 21 21 20 20 20 19 19 18 18 18 17 17 17 16 16 16 15 15 15 15 14 14 14 14 14 14 14 14 14 14 14 14 15
19 19 19 19 19 20 19 19 20 21 22 22 22 22 21 21 21 21 20 20 20 19 19 18 18 18 17 17 16 16 16 15 15 15 15 14 14 14 14 14 14 14 14 14 14 14 14 14 14
19 19 19 19 19 19 20 19 20 21 21 21 21 22 21 21 21 21 21 20 20 19 19 18 18 17 17 17 16 16 16 15 15 15 14 14 14 14 14 14 14 14 14 14 14 14 14 14 14
18 18 18 19 19 19 20 19 20 21 21 20 21 21 21 21 21 21 21 20 20 19 19 18 18 17 17 17 16 16 15 15 15 14 14 14 14 14 14 14 13 13 13 13 14 14 14 14 14
18 18 18 19 19 19 19 19 19 20 20 20 20 21 21 21 21 21 21 20 20 19 19 18 18 17 17 16 16 16 15 15 15 14 14 14 14 14 13 13 13 13 13 13 13 13 14 14 14
18 18 18 18 19 19 19 18 19 20 20 19 20 20 20 21 21 21 20 20 20 19 19 18 18 17 17 16 16 15 15 15 14 14 14 14 14 13 13 13 13 13 13 13 13 13 13 13 14
18 18 18 19 19 19 18 18 18 19 19 18 19 20 20 20 21 20 20 20 19 19 18 18 18 17 17 16 16 15 15 15 14 14 14 14 14 13 13 13 13 13 13 13 13 13 13 13 13
18 18 18 19 19 19 18 18 18 18 18 19 19 19 20 20 20 20 20 20 19 19 18 18 18 17 16 16 16 16 15 15 14 14 14 14 13 13 13 13 13 13 13 13 13 13 13 13 13
18 18 19 19 19 19 19 19 19 19 18 19 19 20 20 20 20 20 20 20 19 19 18 18 17 17 16 16 16 15 15 15 14 14 14 14 13 13 13 13 13 13 13 13 13 13 13 13 13
18 19 19 19 18 17 18 18 18 18 18 18 18 19 20 20 20 20 20 20 19 19 18 18 17 17 16 16 16 15 15 15 14 14 14 14 13 13 13 13 13 13 13 13 12 13 13 13 13
19 19 19 19 18 17 17 17 18 18 19 19 18 19 20 20 20 21 20 20 20 19 18 18 17 17 16 16 16 15 15 15 14 14 14 14 13 13 13 13 13 13 13 13 12 12 12 12 13
19 18 17 16 16 17 17 17 18 17 19 19 19 19 20 20 20 20 20 20 19 19 18 18 17 17 16 16 16 15 15 15 15 14 14 14 14 13 13 13 13 13 13 13 12 12 12 12 13
18 17 17 17 16 17 17 17 17 18 18 18 19 20 20 20 20 20 20 20 20 19 19 18 18 17 17 16 16 15 15 15 15 14 14 14 14 14 13 13 13 13 13 13 12 12 12 12 13
18 17 17 17 17 16 17 17 18 19 19 19 19 20 20 20 20 20 20 20 20 19 19 18 18 17 17 16 16 15 15 15 15 14 14 14 14 13 13 13 13 13 13 13 12 12 12 12 13
18 16 16 15 16 16 17 18 18 19 19 18 19 19 20 20 21 21 20 20 20 19 19 18 18 17 17 16 16 16 15 15 15 14 14 14 14 14 13 13 13 13 13 13 12 12 12 12 12
18 16 15 16 16 17 18 18 18 20 19 19 18 19 20 21 21 20 20 20 20 19 19 18 18 17 17 16 16 16 15 15 15 14 14 14 14 14 13 13 13 13 13 13 12 12 12 12 12
18 17 15 14 15 16 17 18 18 18 19 18 18 19 20 21 21 21 21 20 20 19 19 18 18 17 17 16 16 16 15 15 15 15 14 14 14 14 13 13 13 13 13 13 12 12 12 12 12
19 18 16 17 16 15 16 17 19 18 17 18 19 20 21 21 21 21 20 20 20 19 19 18 18 17 17 17 16 16 15 15 15 15 14 14 14 14 13 13 13 13 13 12 12 12 12 12 12
Wind_Speed
3 6 3 3 4 4 2 3 2 1 1 1 2 4 5 3 2 3 1 6 8 7 7 9 10 9 9 8 8 7 7 7 7 6 6 6 5 5 4 4 3 3 3 3 2 2 2 2 2
5 4 3 4 4 1 4 3 1 2 2 3 3 4 4 3 2 5 3 6 8 8 8 9 10 10 9 8 8 7 6 6 6 5 5 5 5 4 4 4 3 3 3 2 2 2 2 2 2
4 2 3 3 2 3 3 3 2 1 3 2 3 3 3 3 4 5 5 9 8 7 8 9 11 10 9 8 7 7 6 5 5 5 4 4 4 4 4 4 4 3 3 3 3 3 2 2 2
3 3 3 3 2 4 4 3 1 1 1 3 4 3 2 1 6 6 9 10 9 7 7 9 11 10 9 8 7 6 6 5 4 4 3 3 3 3 3 3 3 3 3 3 3 3 3 3 3
3 3 3 1 4 4 3 2 2 2 1 2 4 3 1 2 5 9 10 10 9 7 7 8 10 10 8 7 6 5 5 4 3 3 2 2 3 3 3 3 3 3 4 4 4 4 4 4 4
4 4 2 2 4 4 2 1 2 1 2 3 5 4 1 1 7 9 9 9 8 8 6 7 10 9 8 7 6 5 4 3 2 1 1 2 2 3 4 4 4 4 4 4 5 5 5 4 4
4 3 2 2 3 3 1 1 2 2 2 4 6 5 1 2 6 8 8 7 6 5 5 4 5 6 7 6 5 4 3 2 1 1 1 2 3 3 4 5 5 5 5 5 5 5 5 5 4
4 4 1 2 2 3 2 1 0 2 2 3 6 6 5 6 6 7 6 5 4 4 4 3 3 3 3 3 3 4 2 1 1 1 2 2 3 4 5 5 6 5 5 5 5 5 5 5 5
4 3 2 3 4 3 1 1 1 1 3 2 3 5 4 9 10 8 5 3 3 4 3 3 3 3 3 2 2 2 1 1 2 2 3 4 4 5 4 5 5 4 4 4 5 6 5 5 6
4 3 5 4 3 2 3 1 1 1 1 0 0 1 6 11 11 10 8 8 7 6 5 4 4 3 2 2 1 1 2 2 2 2 3 3 4 4 4 5 6 6 5 5 5 5 5 4 5
4 4 3 2 2 1 2 2 1 3 2 5 5 6 10 10 10 11 10 8 8 6 5 5 5 4 3 2 1 1 1 2 2 2 2 2 3 4 4 4 5 6 6 5 5 5 5 4 3
3 2 2 2 1 1 2 1 1 4 6 5 6 8 10 12 13 12 11 9 6 6 6 5 5 4 3 2 1 1 1 1 1 2 2 1 1 2 2 2 3 3 4 3 3 3 3 3 3
3 3 3 3 2 2 2 3 3 5 6 2 5 8 11 12 11 9 9 8 6 6 6 5 5 5 4 3 1 1 1 1 0 1 1 1 1 1 1 1 2 2 3 2 2 2 2 3 3
4 3 3 3 2 1 2 3 2 6 3 4 7 9 9 10 10 8 7 8 7 7 6 5 5 5 4 3 2 1 1 1 1 1 1 0 1 0 0 1 1 2 2 2 1 2 2 2 2
1 1 3 2 2 2 1 3 4 4 2 4 7 8 8 8 8 9 9 9 8 7 6 6 5 5 5 3 2 2 1 2 1 0 1 1 1 1 0 1 2 2 3 2 2 2 1 2 2
2 2 1 3 2 2 3 5 6 3 4 4 5 5 6 7 7 7 7 7 8 7 7 6 5 5 4 3 2 1 2 1 1 0 1 1 0 1 1 1 2 2 2 1 1 1 2 2 2
3 1 2 4 1 1 3 5 5 2 5 5 5 5 5 5 5 5 6 8 8 8 7 6 6 6 5 3 2 2 2 1 1 1 1 1 1 1 1 1 2 2 1 2 2 1 1 2 2
3 2 2 4 3 1 2 6 5 3 5 5 5 5 5 6 6 5 6 7 8 7 7 7 6 5 4 3 2 2 2 1 1 1 1 2 2 1 1 1 2 2 1 2 1 1 1 1 2
3 3 3 5 3 1 4 6 7 4 4 5 5 5 6 6 3 4 6 7 7 7 7 6 6 5 4 2 2 2 0 1 1 1 2 2 2 2 1 1 2 1 1 2 2 1 1 2 1
2 2 3 3 1 1 3 6 5 3 4 5 7 7 7 5 4 5 6 6 7 8 7 7 6 5 4 3 2 2 1 0 1 2 2 2 3 2 1 1 2 1 1 2 1 0 1 1 1
2 4 3 2 3 3 3 6 4 2 1 1 3 5 6 9 9 8 7 7 7 8 8 7 6 5 4 4 3 3 3 2 2 2 2 2 3 2 2 1 2 1 1 1 2 1 1 1 1
3 4 3 1 2 3 3 2 6 4 3 2 4 5 6 7 7 7 8 8 8 8 6 6 6 5 4 4 4 4 3 1 2 2 2 3 3 2 2 2 2 1 1 2 2 1 1 1 1
4 0 2 2 3 2 4 1 7 4 3 4 5 6 6 6 8 8 8 9 8 7 7 6 6 5 4 4 5 4 3 2 1 1 2 3 3 3 3 2 1 1 1 2 2 1 1 1 1
3 5 6 5 4 3 2 1 5 4 5 5 4 6 7 7 7 7 6 6 5 5 5 6 6 5 4 4 4 4 4 3 1 1 2 2 2 3 3 2 2 2 2 2 2 1 1 1 1
5 5 4 5 5 3 3 0 6 6 5 5 5 5 5 6 7 7 8 8 7 8 7 6 6 5 5 5 5 5 4 4 3 2 2 2 2 2 4 2 2 2 2 2 1 1 1 1 2
2 5 6 3 2 4 4 2 6 6 5 2 1 3 3 4 5 7 8 8 8 8 8 8 8 6 6 5 5 4 4 3 3 3 2 2 2 3 3 3 2 2 2 1 1 1 1 1 1
4 3 4 6 2 2 5 6 7 4 6 5 3 2 3 5 5 6 6 7 7 8 8 9 8 7 6 6 5 4 4 4 4 3 2 2 2 2 2 2 2 2 2 1 1 1 1 1 1
4 7 5 5 3 1 5 4 4 6 5 4 2 2 3 3 4 5 5 6 6 6 5 6 7 7 6 6 5 4 4 4 3 2 2 2 2 2 2 2 2 2 2 1 1 1 1 0 1
3 4 5 4 4 4 1 5 5 5 5 5 5 5 5 5 5 5 5 5 5 4 4 5 5 5 5 5 5 4 4 3 3 3 3 3 2 2 2 2 2 2 2 2 1 1 1 1 1
2 4 5 4 1 3 3 6 5 5 6 5 6 5 4 4 4 4 4 4 4 4 5 5 5 6 6 5 5 4 4 3 3 3 3 2 2 2 2 1 1 1 1 1 1 1 1 1 1
Wind_Direction
180 107 88 57 53 42 297 269 227 296 320 351 59 92 105 108 138 157 140 139 132 136 146 147 143 136 130 124 119 114 111 109 105 99 92 86 81 79 75 75 73 69 61 55 55 62 61 59 47
121 105 72 61 80 35 284 267 243 228 169 131 75 81 78 73 85 115 129 146 135 140 144 148 145 139 134 129 123 117 111 106 103 99 95 87 81 74 66 61 53 50 46 39 36 37 33 20 13
122 86 90 78 118 194 251 252 221 275 158 125 74 63 100 134 139 156 165 145 137 142 148 155 149 145 140 134 129 122 115 111 107 100 94 88 75 69 61 55 44 35 25 19 18 13 0 348 347
103 60 62 76 252 235 237 261 185 148 104 80 105 74 52 114 158 162 145 143 142 149 155 165 157 153 149 145 139 131 125 118 106 97 90 79 69 64 55 41 29 18 6 355 350 350 344 338 337
72 81 58 346 275 272 254 250 172 162 136 106 116 117 35 9 122 136 144 150 153 157 163 173 165 162 160 155 147 140 136 128 112 95 88 77 58 40 23 10 3 354 341 338 338 332 330 330 325
69 78 89 272 281 296 292 209 140 132 125 125 134 131 196 116 137 150 153 157 159 159 164 176 174 170 168 164 159 154 149 138 122 84 49 27 11 357 344 336 331 329 328 330 329 328 319 320 321
119 116 168 242 285 305 312 105 140 162 164 177 151 134 192 190 171 152 149 148 148 152 156 172 177 176 178 177 174 168 159 151 135 47 0 358 354 349 335 324 317 319 324 322 325 326 326 321 319
136 120 150 244 252 275 306 31 216 172 202 148 140 154 198 201 158 131 127 127 137 151 165 171 173 167 163 183 195 178 169 152 90 35 7 357 358 350 342 336 324 315 319 325 330 329 331 330 326
111 97 204 223 215 264 315 359 331 190 132 139 184 189 195 145 131 125 123 130 163 180 181 176 175 174 175 197 202 166 146 94 62 34 21 19 12 358 349 349 344 332 329 334 339 335 333 336 339
117 164 221 214 198 254 310 265 249 69 122 177 175 132 125 137 146 155 166 178 189 195 195 185 185 180 176 196 149 99 78 61 55 40 26 23 19 6 11 11 9 7 2 1 1 357 357 360 357
158 196 242 252 225 240 293 295 227 147 214 220 210 179 147 153 162 172 183 188 197 196 193 186 185 176 167 174 153 106 77 48 30 26 25 28 29 16 15 15 9 9 9 10 4 4 4 3 351
164 250 231 266 277 261 251 258 259 206 228 236 201 166 161 170 180 185 189 192 185 179 190 185 173 164 166 163 152 132 107 56 9 360 14 59 37 8 8 11 356 0 358 354 357 353 347 350 342
192 243 251 265 283 245 237 239 242 250 258 250 145 155 175 183 189 192 190 182 174 179 185 181 167 165 159 153 162 127 134 114 21 10 9 83 75 342 346 335 350 348 353 346 337 338 335 338 334
202 222 279 296 278 259 227 265 244 264 225 154 155 174 183 188 189 182 181 182 183 183 180 168 164 165 151 153 151 143 137 123 92 16 0 69 146 159 333 333 336 331 331 323 318 309 315 313 317
164 184 308 276 235 245 161 289 244 257 170 165 183 184 184 195 192 194 191 186 183 176 168 165 166 151 145 149 158 148 143 134 127 7 12 90 144 148 114 342 330 318 321 324 328 325 326 320 322
80 70 310 286 216 228 157 255 264 240 167 190 205 193 193 204 206 203 186 178 172 162 161 167 162 144 146 150 148 136 123 120 110 49 22 3 347 116 83 337 311 311 326 331 324 326 331 323 318
53 143 256 297 265 202 178 247 263 200 184 202 210 199 201 208 212 196 179 170 164 161 156 154 144 145 150 143 126 110 98 91 55 33 9 332 328 8 84 303 299 318 328 329 320 352 310 305 308
205 215 248 267 278 209 240 260 275 225 201 212 212 203 202 205 212 179 167 160 154 151 150 148 140 139 133 114 95 71 60 27 20 1 325 321 326 340 7 312 322 335 337 331 332 323 327 291 297
163 185 245 259 251 227 258 270 273 244 207 210 210 203 204 213 199 156 154 147 142 144 149 154 151 153 139 125 128 118 133 309 327 320 322 327 323 319 323 318 324 329 315 303 311 317 348 342 341
155 222 266 290 292 210 287 287 280 242 215 213 207 204 202 196 177 162 154 154 158 162 165 163 164 165 169 161 152 151 152 221 269 302 320 323 322 313 303 300 302 304 305 321 329 351 359 342 27
222 207 227 255 347 26 356 333 326 322 303 196 201 203 196 192 187 179 169 171 167 173 178 177 174 170 168 147 114 82 57 30 7 340 324 317 318 318 321 302 290 292 284 288 288 239 168 297 328
249 235 204 169 59 339 26 325 308 316 323 243 217 208 205 196 188 183 177 178 183 186 176 170 169 168 167 153 149 145 149 193 238 254 280 304 314 316 310 295 286 279 270 276 278 226 194 180 262
219 23 104 97 125 35 21 66 298 336 313 271 231 217 216 202 189 189 188 187 186 178 173 171 165 169 170 164 165 157 166 205 246 284 301 315 320 317 314 294 285 280 269 273 280 278 203 190 195
132 64 58 50 71 43 330 94 297 295 273 277 238 217 210 201 194 191 181 171 174 169 168 166 167 178 177 172 173 177 184 193 206 277 299 313 316 311 316 305 293 277 266 267 268 264 229 208 198
75 79 40 20 23 288 305 189 263 282 276 254 233 219 206 195 189 186 183 181 181 179 180 177 174 189 187 183 191 196 197 190 202 228 247 278 299 296 302 302 292 279 270 260 257 255 261 219 207
115 128 144 159 203 297 344 301 273 291 307 301 177 173 178 187 189 192 195 191 190 190 186 182 186 195 191 192 203 202 199 195 212 223 226 242 254 267 287 293 295 287 281 278 253 248 261 242 235
115 105 147 127 116 30 326 316 318 348 15 29 49 100 190 200 199 202 198 195 193 193 196 192 191 195 196 197 197 201 202 202 213 224 228 246 261 273 293 300 311 313 313 319 305 279 278 272 254
106 138 96 96 114 34 335 328 298 317 328 338 331 273 247 222 208 205 202 203 202 202 200 191 191 196 197 194 197 200 203 208 208 204 230 252 269 290 306 317 321 325 329 328 327 304 295 307 299
83 83 93 95 127 134 15 289 244 256 277 278 268 258 245 236 224 213 207 201 193 185 186 192 194 194 194 196 198 197 201 201 197 207 227 239 260 278 288 294 308 322 333 339 352 328 331 331 329
130 138 137 125 158 140 150 270 284 277 280 273 272 269 259 246 234 209 199 186 186 193 195 196 197 199 203 196 191 199 196 189 200 219 230 233 251 269 279 299 318 322 328 336 349 322 335 319 323
Height
1500 1500 1501 1502 1505 1512 1511 1504 1500 1498 1498 1497 1496 1496 1498 1500 1504 1509 1505 1504 1505 1507 1508 1509 1511 1512 1513 1514 1515 1515 1516 1517 1517 1518 1519 1519 1519 1519 1520 1520 1520 1520 1520 1520 1520 1520 1520 1520 1520
1500 1501 1503 1503 1510 1519 1513 1501 1500 1497 1497 1497 1497 1498 1499 1500 1501 1502 1503 1505 1506 1507 1509 1510 1512 1513 1514 1514 1515 1516 1516 1517 1517 1518 1518 1518 1519 1519 1519 1519 1519 1519 1519 1519 1519 1519 1519 1519 1520
1500 1501 1503 1505 1511 1516 1508 1499 1497 1496 1496 1497 1498 1499 1500 1501 1502 1503 1504 1505 1507 1508 1510 1511 1513 1513 1514 1515 1515 1516 1516 1517 1517 1517 1518 1518 1518 1518 1518 1518 1518 1518 1518 1518 1518 1518 1519 1519 1519
1500 1502 1504 1508 1509 1505 1501 1497 1496 1496 1497 1497 1498 1500 1501 1502 1503 1504 1505 1506 1508 1509 1511 1512 1513 1514 1515 1515 1516 1516 1516 1516 1517 1517 1517 1518 1518 1518 1518 1518 1517 1517 1517 1517 1517 1517 1518 1518 1518
1501 1502 1506 1510 1507 1500 1497 1496 1496 1496 1497 1497 1498 1500 1501 1503 1503 1505 1506 1507 1509 1510 1512 1513 1514 1515 1515 1516 1516 1516 1516 1517 1517 1517 1517 1518 1517 1517 1517 1517 1517 1517 1516 1516 1516 1516 1516 1517 1517
1500 1502 1511 1514 1506 1499 1496 1495 1496 1496 1497 1497 1498 1500 1502 1503 1504 1505 1507 1508 1510 1512 1513 1514 1515 1515 1516 1516 1517 1517 1517 1517 1517 1517 1517 1517 1517 1517 1516 1516 1516 1516 1516 1515 1515 1515 1515 1515 1516
1501 1504 1509 1509 1506 1501 1496 1495 1496 1496 1497 1498 1498 1500 1501 1502 1504 1506 1508 1509 1511 1512 1513 1514 1515 1516 1516 1517 1517 1517 1517 1517 1517 1517 1517 1517 1517 1516 1516 1516 1515 1515 1515 1514 1514 1514 1514 1514 1514
1498 1503 1507 1508 1506 1502 1496 1496 1496 1496 1497 1497 1498 1499 1500 1502 1504 1506 1508 1510 1511 1513 1514 1515 1515 1516 1516 1517 1517 1517 1517 1517 1517 1517 1517 1516 1516 1516 1515 1515 1515 1514 1514 1513 1513 1513 1513 1513 1513
1498 1505 1509 1505 1504 1499 1496 1496 1496 1496 1496 1497 1498 1498 1499 1501 1503 1506 1508 1510 1511 1512 1514 1515 1515 1516 1517 1517 1517 1517 1517 1517 1517 1517 1516 1516 1516 1515 1515 1515 1514 1514 1513 1513 1512 1512 1512 1512 1512
1497 1505 1503 1498 1498 1497 1496 1495 1495 1496 1496 1497 1497 1497 1498 1500 1502 1504 1507 1508 1510 1512 1513 1514 1515 1516 1517 1517 1517 1517 1517 1517 1517 1516 1516 1516 1515 1515 1514 1514 1513 1513 1512 1512 1511 1511 1511 1511 1510
1496 1499 1497 1495 1495 1495 1495 1495 1494 1495 1496 1495 1495 1496 1497 1500 1502 1504 1506 1508 1509 1511 1513 1514 1515 1516 1516 1517 1517 1517 1517 1517 1517 1516 1516 1515 1514 1514 1513 1513 1512 1512 1511 1511 1510 1510 1509 1509 1509
1495 1495 1495 1494 1494 1494 1495 1494 1494 1493 1493 1493 1494 1496 1497 1499 1500 1503 1505 1507 1509 1511 1512 1514 1515 1516 1516 1517 1517 1517 1517 1516 1516 1516 1515 1514 1514 1513 1513 1512 1511 1511 1510 1510 1509 1509 1508 1508 1508
1494 1494 1493 1494 1494 1493 1493 1493 1493 1491 1491 1492 1493 1495 1497 1498 1500 1502 1505 1507 1509 1510 1512 1513 1515 1515 1516 1516 1516 1516 1516 1516 1516 1515 1514 1514 1513 1512 1512 1511 1510 1510 1509 1508 1508 1507 1507 1506 1506
1492 1493 1493 1493 1492 1492 1492 1492 1492 1489 1490 1491 1491 1493 1495 1498 1500 1502 1504 1506 1508 1510 1512 1513 1514 1515 1515 1516 1516 1516 1516 1515 1515 1514 1514 1513 1512 1511 1510 1510 1509 1508 1507 1507 1506 1505 1505 1505 1505
1492 1493 1493 1492 1491 1491 1492 1493 1490 1489 1489 1489 1491 1492 1494 1497 1499 1501 1503 1505 1507 1509 1511 1512 1513 1514 1515 1515 1515 1515 1515 1515 1514 1514 1513 1512 1511 1510 1509 1508 1508 1507 1506 1505 1504 1504 1503 1503 1503
1492 1496 1499 1492 1491 1490 1495 1498 1488 1487 1487 1488 1490 1491 1493 1495 1498 1500 1502 1504 1506 1508 1510 1511 1513 1514 1514 1514 1515 1514 1514 1514 1514 1513 1512 1511 1510 1509 1508 1507 1506 1505 1504 1503 1502 1502 1501 1501 1501
1498 1503 1501 1495 1490 1490 1493 1494 1486 1486 1487 1487 1488 1490 1492 1494 1496 1499 1501 1503 1505 1507 1509 1510 1512 1513 1513 1514 1514 1514 1514 1513 1513 1512 1511 1510 1509 1508 1507 1506 1505 1504 1503 1502 1501 1500 1499 1499 1499
1503 1502 1500 1498 1491 1490 1492 1491 1486 1485 1486 1486 1487 1488 1490 1492 1494 1497 1500 1502 1504 1506 1508 1510 1511 1512 1513 1513 1513 1513 1513 1512 1512 1511 1511 1510 1509 1507 1506 1505 1504 1502 1501 1500 1499 1499 1498 1498 1497
1494 1498 1500 1495 1489 1491 1492 1490 1485 1483 1484 1485 1486 1487 1489 1491 1494 1496 1499 1501 1503 1505 1507 1509 1510 1511 1512 1512 1512 1512 1511 1512 1511 1511 1510 1509 1508 1507 1505 1504 1503 1501 1500 1499 1498 1498 1497 1496 1496
1494 1498 1498 1493 1488 1489 1491 1489 1484 1482 1483 1483 1484 1485 1487 1490 1492 1495 1497 1500 1502 1504 1506 1508 1509 1510 1511 1511 1511 1511 1511 1511 1511 1510 1509 1508 1507 1506 1504 1503 1502 1500 1499 1498 1497 1497 1496 1496 1495
1494 1496 1495 1494 1490 1489 1491 1492 1486 1482 1482 1482 1483 1484 1486 1488 1490 1493 1496 1498 1501 1503 1505 1507 1508 1509 1510 1510 1510 1510 1510 1510 1510 1509 1509 1508 1506 1505 1504 1502 1501 1499 1498 1497 1496 1496 1495 1495 1495
1496 1489 1489 1492 1498 1503 1499 1508 1492 1486 1484 1482 1482 1483 1485 1487 1489 1492 1494 1497 1499 1502 1504 1506 1507 1508 1509 1509 1509 1509 1509 1509 1509 1509 1508 1507 1506 1504 1503 1501 1500 1499 1497 1496 1495 1495 1495 1494 1494
1489 1486 1488 1492 1498 1505 1504 1509 1501 1489 1486 1483 1482 1482 1484 1486 1488 1491 1493 1496 1498 1501 1503 1505 1506 1507 1508 1509 1509 1509 1509 1509 1509 1508 1507 1506 1505 1504 1502 1501 1499 1498 1497 1496 1495 1494 1494 1493 1493
1486 1490 1494 1500 1505 1514 1508 1511 1506 1495 1487 1482 1480 1481 1483 1485 1487 1490 1493 1495 1497 1500 1502 1503 1505 1506 1507 1507 1508 1508 1508 1508 1508 1507 1506 1505 1504 1503 1502 1500 1499 1497 1496 1495 1494 1494 1493 1493 1493
1489 1501 1515 1516 1522 1518 1507 1508 1505 1487 1482 1481 1479 1480 1482 1484 1486 1488 1491 1493 1495 1498 1500 1501 1503 1504 1505 1506 1507 1507 1508 1507 1507 1506 1505 1504 1503 1502 1501 1499 1498 1497 1495 1495 1494 1493 1492 1492 1492
1492 1498 1516 1523 1525 1520 1509 1509 1496 1484 1480 1478 1478 1479 1481 1483 1485 1487 1489 1492 1494 1496 1498 1500 1501 1503 1504 1505 1506 1506 1507 1506 1506 1505 1505 1504 1503 1501 1500 1499 1497 1496 1495 1494 1493 1492 1492 1491 1491
1494 1500 1501 1514 1517 1522 1515 1504 1491 1481 1479 1478 1479 1480 1481 1482 1484 1486 1489 1491 1493 1495 1497 1498 1500 1501 1502 1504 1504 1505 1505 1505 1505 1505 1504 1503 1502 1501 1500 1498 1497 1495 1494 1493 1492 1491 1491 1490 1490
1489 1497 1507 1514 1523 1527 1517 1511 1505 1488 1484 1481 1480 1480 1480 1482 1484 1486 1488 1489 1491 1493 1495 1497 1499 1500 1501 1502 1503 1504 1504 1504 1504 1504 1503 1502 1501 1500 1499 1497 1496 1495 1494 1493 1492 1491 1490 1489 1489
1494 1499 1506 1515 1516 1526 1525 1517 1492 1488 1484 1483 1481 1480 1481 1481 1483 1484 1486 1488 1490 1492 1494 1495 1497 1498 1499 1501 1502 1502 1503 1503 1503 1502 1502 1501 1500 1499 1498 1496 1495 1494 1493 1492 1491 1490 1489 1489 1488
1489 1494 1503 1511 1517 1520 1523 1516 1485 1484 1483 1481 1480 1480 1480 1481 1482 1483 1485 1487 1488 1490 1492 1493 1495 1496 1498 1499 1500 1501 1501 1501 1501 1501 1500 1500 1499 1498 1497 1496 1495 1494 1493 1492 1491 1490 1489 1488 1488